863  
ASCA44 KEWX 240120  
RWRMX  
 
LATIN AMERICA AND CARIBBEAN REGIONAL WEATHER ROUNDUP  
NATIONAL WEATHER SERVICE AUSTIN/SAN ANTONIO TX  
800 PM CDT THU MAR 23 2017  
 
NOTE: "FAIR" INDICATED FEW OR NO CLOUDS BELOW 12,000 FEET WITH NO  
SIGNIFICANT WEATHER AND/OR S TO VISIBILITY
.  
 
BAJA CALIFORNIA  
 
CITY SKY/WX TMP DP RH WIND PRES REMARKS
 
LORETO PTCLDY 73 66 78 N23 29.98  
LA PAZ PTCLDY 73 52 46 N14 30.01R  
MEXICALI SUNNY 75 30 19 W8 30.00S  
S.J. DEL CABO MOCLDY 75 57 53 NW12 29.98R  
TIJUANA MOSUNNY 61 43 51 W5 30.19R  
 
NORTHWESTERN MEXICO  
 
CITY SKY/WX TMP DP RH WIND PRES REMARKS
 
CULIACAN MOCLDY 82 61 47 W9 29.88R  
DURANGO CLOUDY 77 18 10 SW8 30.12R  
GUAYMAS CLEAR 77 48 36 N13 29.95S  
HERMOSILLO CLEAR 77 43 29 W14 30.00S  
CD. JUAREZ CLEAR 64 21 19 W18G32 29.86R  
LOS MOCHIS MOCLDY 73 52 46 NW26 29.96R  
OBREGON CLEAR 75 46 35 W13 29.91S  
 
NORTHEASTERN MEXICO  
 
CITY SKY/WX TMP DP RH WIND PRES REMARKS
 
CHIHUAHUA PTCLDY 84 12 6 SW23G35 29.88R  
MATAMOROS CLEAR 75 66 73 SE14G28 29.96S  
MONCLOVA MOCLDY 81 54 39 SW9 29.83  
MONTERREY MOCLDY 81 55 41 SE12 29.87R  
NUEVO LAREDO MOCLDY 81 61 50 SE23 29.86R  
PIEDRAS NEGRAS N/A N/A N/A N/A MISG N/A  
REYNOSA PTCLDY 73 61 64 SE12G23 29.93R  
SALTILLO MOCLDY 66 54 63 N14 30.08R  
TORREON MOCLDY 93 25 8 SW5 29.86S  
CD. VICTORIA CLEAR 81 55 41 SE17 29.92R  
 
WESTERN MEXICO  
 
CITY SKY/WX TMP DP RH WIND PRES REMARKS
 
AGUASCALIENTES CLEAR 79 19 11 S7 30.12R  
COLIMA PTCLDY 75 70 83 W9 30.00R  
DEL BAJIO PTCLDY 79 28 15 W5 30.15S  
GUADALAJARA PTCLDY 82 46 28 S16 30.06R  
MANZANILLO PTCLDY 81 72 74 W9 29.89R  
MAZATLAN MOCLDY 75 66 73 W8 29.95R  
P. VALLARTA MOCLDY 77 72 83 SW8 29.93R  
URUAPAN MOCLDY 73 52 46 CALM 30.14S  
ZACATECAS MOCLDY 77 19 11 NW12 30.17R  
 
CENTRAL MEXICO  
 
CITY SKY/WX TMP DP RH WIND PRES REMARKS
 
CUERNAVACA CLEAR 81 37 21 SE2 30.03  
MEXICO CITY CLEAR 72 27 18 E12 30.23R  
MORELIA PTCLDY 75 48 38 S9 30.13R  
POZA RICA CLEAR 75 68 78 E7 30.03S  
PUEBLA CLEAR 64 27 24 S14 30.25R  
QUERETARO PTCLDY 77 36 22 NE17 30.18R  
S. LUIS POTOSI MOCLDY 73 39 29 E6 30.12R  
TAMPICO PTCLDY 75 68 78 S21 29.98F  
TOLUCA PTCLDY 64 37 36 S15 30.34R  
 
SOUTHERN MEXICO  
 
CITY SKY/WX TMP DP RH WIND PRES REMARKS
 
ACAPULCO CLEAR 82 73 74 W7 29.89R  
B. DE HUATULCO CLEAR 82 72 69 CALM 29.96  
OAXACA MOCLDY 77 25 14 E8 30.13R  
P. ESCONDIDO CLEAR 82 72 69 S12 29.94S  
VERACRUZ CLEAR 77 68 73 E7 30.00R  
ZIHUATANEJO CLEAR 82 73 74 SW3 29.90R  
 
YUCATAN PENINSULA  
 
CITY SKY/WX TMP DP RH WIND PRES REMARKS
 
CAMPECHE CLEAR 79 70 73 N12G23 29.98R  
CANCUN PTCLDY 73 63 68 N5 30.12R  
CHETUMAL PTCLDY 79 63 57 SE12 30.07R  
CD. DEL CARMEN CLEAR 79 72 78 N8 29.99R  
COZUMEL PTCLDY 73 64 73 E5 30.10R  
MERIDA CLEAR 77 63 61 NE12 30.05R  
MINATITLAN CLEAR 77 68 73 N12 29.97R  
TAPACHULA PTCLDY 82 73 74 CALM 29.89R  
TUX. GUTIERREZ PTCLDY 77 59 53 W15 29.97R  
VILLAHERMOSA CLEAR 79 68 69 NW5 29.99R  
 
CENTRAL AMERICA  
 
CITY SKY/WX TMP DP RH WIND PRES REMARKS
 
BELIZE CITY PTCLDY 79 68 69 E7 30.07R  
MANAGUA PTCLDY 84 55 37 E12 29.86S  
 
CARIBBEAN  
 
CITY SKY/WX TMP DP RH WIND PRES REMARKS
 
ARUBA MOCLDY 81 75 83 E13 29.92R  
CURACAO PTCLDY 81 75 83 E7 29.94R  
KINGSTON PTCLDY 81 66 61 NE7 29.97R  
NASSAU MOCLDY 79 55 44 NE13 30.19R  
SAN JUAN MOCLDY 73 73 100 CALM 30.00R  
SANTO DOMINGO PTCLDY 77 70 78 NE6 29.97R  
ST. CROIX PTCLDY 77 73 88 CALM 29.99  
ST. KITTS PTCLDY 79 72 78 E9 30.00  
ST. MAARTEN MOCLDY 79 75 89 SE12 30.00R  
ST. THOMAS PTCLDY 79 75 89 SE7 29.98  
 

 
 
 
 
CLICK HERE TO GO TO PREVIOUS BULLETINS.

The Nexlab HPC Page Main Text Page